"Pseudo-MPEC" for P21Y3o8

Created 2024 Sep 5 13:22:37 UT using Find_Orb

Click here for an explanation of pseudo-MPECs

 
 Astrometry: 
     P21Y3o8* C2024 09 05.36351223 30 53.904+27 17 56.39   ~95Aq 21.45wXNEOCPF52
     P21Y3o8  C2024 09 05.37604623 30 54.144+27 17 42.94   ~95Aq 21.57wXNEOCPF52
     P21Y3o8  C2024 09 05.38857423 30 54.372+27 17 29.36   ~95Aq 21.50wXNEOCPF52
     P21Y3o8  C2024 09 05.40110823 30 54.599+27 17 15.88   ~95Aq 21.60wXNEOCPF52

Station data:
(F52) Pan-STARRS 2, Haleakala  (N20.707382 W156.255910)  US/Hawaii.
   Observers J. Bulger, T. Dukes, T. Lowe, A. Schultz, M. Willman. Measurers
   K. Chambers, S. Chastel, T. de Boer, L. Denneau, J. Fairlamb, H.
   Flewelling, M. Huber, C.-C. Lin, E. Magnier, Y. Ramanjooloo, R. Wainscoat,
   R. Weryk. 1.8-m Ritchey-Chrétien + CCD.

Orbital elements:  P21Y3o8
   Perihelion 2024 Sep 13.75851 +/- 50 TT = 18:12:15 (JD 2460567.25851)
Epoch 2024 Sep  5.0 TT = JDT 2460558.5   Earth MOID: 0.4069   Ma: 0.0171
M 356.89858863 +/- 23               (J2000 ecliptic)             AutoNEOCP
n   0.35410248 +/- 0.287            Peri.  151.11047 +/- 80
a   1.97871569 +/- 1.07             Node   202.78841 +/- 35
e   0.2965431 +/- 0.253             Incl.   15.06133 +/- 9
P   2.78340                H 21.32  G  0.15   U 11.9  SR
q 1.39194114 +/- 0.413    Q 2.56549025 +/- 58.8
From 4 observations 2024 Sept. 5 (54.1 min); mean residual 0".03
Residuals in arcseconds: 
240905 F52  .02-  .01+    240905 F52  .00   .06-    
240905 F52  .04+  .02+    240905 F52  .01-  .03+    

Ephemerides (geocentric):
Date (UTC) HH   RA             Dec           delta  r     elong  mag " sig PA
---- --------  ------------   ------------  ------ ------ -----  --- --------
2024 09 05 13  23 30 57.812   +27 14 38.26  .44135 1.3935 145.2 21.4 20.7  56
2024 09 05 14  23 30 58.903   +27 13 51.86  .44122 1.3935 145.2 21.4 29.7  62
2024 09 05 15  23 30 59.993   +27 13 05.35  .44110 1.3934 145.3 21.4 39.0  65
2024 09 05 16  23 31 01.082   +27 12 18.73  .44097 1.3934 145.3 21.4 48.4  67
2024 09 05 17  23 31 02.169   +27 11 32.00  .44084 1.3934 145.3 21.4 57.9  68
2024 09 05 18  23 31 03.255   +27 10 45.16  .44072 1.3934 145.4 21.4 67.5  68
2024 09 05 19  23 31 04.340   +27 09 58.21  .44059 1.3934 145.4 21.4 77.3  69
2024 09 05 20  23 31 05.424   +27 09 11.16  .44046 1.3934 145.4 21.4 87.2  69
2024 09 05 21  23 31 06.507   +27 08 23.99  .44034 1.3933 145.5 21.4 97.2  69
2024 09 05 22  23 31 07.589   +27 07 36.72  .44021 1.3933 145.5 21.4  107  69
2024 09 05 23  23 31 08.669   +27 06 49.34  .44009 1.3933 145.5 21.4  118  69
2024 09 06 00  23 31 09.749   +27 06 01.85  .43996 1.3933 145.6 21.4  128  69
2024 09 06 01  23 31 10.827   +27 05 14.25  .43983 1.3933 145.6 21.4  139  68
2024 09 06 02  23 31 11.904   +27 04 26.54  .43971 1.3933 145.6 21.4  150  68
2024 09 06 03  23 31 12.980   +27 03 38.72  .43958 1.3933 145.7 21.4  161  68
2024 09 06 04  23 31 14.055   +27 02 50.80  .43946 1.3932 145.7 21.4  172  67
2024 09 06 05  23 31 15.129   +27 02 02.76  .43934 1.3932 145.7 21.4  183  67
2024 09 06 06  23 31 16.202   +27 01 14.62  .43921 1.3932 145.8 21.4  195  67
2024 09 06 07  23 31 17.274   +27 00 26.37  .43909 1.3932 145.8 21.4  207  66
2024 09 06 08  23 31 18.344   +26 59 38.01  .43896 1.3932 145.9 21.4  219  66
2024 09 06 09  23 31 19.414   +26 58 49.54  .43884 1.3932 145.9 21.4  232  65
2024 09 06 10  23 31 20.482   +26 58 00.96  .43872 1.3932 145.9 21.4  245  65
2024 09 06 11  23 31 21.549   +26 57 12.28  .43859 1.3931 146.0 21.4  258  64
2024 09 06 12  23 31 22.616   +26 56 23.48  .43847 1.3931 146.0 21.4  271  64
2024 09 06 13  23 31 23.681   +26 55 34.58  .43835 1.3931 146.0 21.4  285  63
2024 09 06 14  23 31 24.745   +26 54 45.56  .43822 1.3931 146.1 21.4  299  63
2024 09 06 15  23 31 25.808   +26 53 56.44  .43810 1.3931 146.1 21.4  314  62
2024 09 06 16  23 31 26.870   +26 53 07.21  .43798 1.3931 146.1 21.4  329  61
2024 09 06 17  23 31 27.931   +26 52 17.88  .43786 1.3931 146.2 21.4  345  61
2024 09 06 18  23 31 28.991   +26 51 28.43  .43773 1.3931 146.2 21.4  361  60
2024 09 06 19  23 31 30.050   +26 50 38.87  .43761 1.3930 146.2 21.4  377  60
2024 09 06 20  23 31 31.108   +26 49 49.21  .43749 1.3930 146.3 21.4  394  59
2024 09 06 21  23 31 32.165   +26 48 59.44  .43737 1.3930 146.3 21.4  412  58
2024 09 06 22  23 31 33.221   +26 48 09.56  .43725 1.3930 146.3 21.4  430  58
2024 09 06 23  23 31 34.276   +26 47 19.57  .43713 1.3930 146.4 21.3  449  57
2024 09 07 00  23 31 35.330   +26 46 29.47  .43701 1.3930 146.4 21.3  469  57
2024 09 07 01  23 31 36.383   +26 45 39.27  .43689 1.3930 146.5 21.3  489  56
2024 09 07 02  23 31 37.435   +26 44 48.95  .43677 1.3929 146.5 21.3  510  55
2024 09 07 03  23 31 38.486   +26 43 58.53  .43665 1.3929 146.5 21.3  531  55
2024 09 07 04  23 31 39.535   +26 43 08.00  .43653 1.3929 146.6 21.3  554  54
2024 09 07 05  23 31 40.584   +26 42 17.36  .43641 1.3929 146.6 21.3  577  54
2024 09 07 06  23 31 41.632   +26 41 26.61  .43629 1.3929 146.6 21.3  601  53
2024 09 07 07  23 31 42.679   +26 40 35.76  .43617 1.3929 146.7 21.3  626  52
2024 09 07 08  23 31 43.725   +26 39 44.80  .43605 1.3929 146.7 21.3  652  52
2024 09 07 09  23 31 44.770   +26 38 53.72  .43593 1.3929 146.7 21.3  679  51
2024 09 07 10  23 31 45.815   +26 38 02.54  .43581 1.3929 146.8 21.3  707  51
2024 09 07 11  23 31 46.858   +26 37 11.26  .43569 1.3928 146.8 21.3  736  50
2024 09 07 12  23 31 47.900   +26 36 19.86  .43558 1.3928 146.8 21.3  767  50